Flag for Germany Weather past 2 weeks in Lutherstadt Eisleben, Saxony-Anhalt, Germany

Now
50 °F

Overcast.


Feels Like: 45 °F
Forecast: 36 / 43 °F
Wind: 14 mph from Southwest

Location: Leipzig-Schkeuditz

Current Time: Mar 31, 2015 at 10:47:04 AM

Latest Report: Mar 31, 2015 at 10:00 AM


Visibility: 19 mi

Pressure: 29.12 "Hg

Humidity: 86%

Dew point: 46 °F

Location of Lutherstadt EislebenLocation

Historic Weather in Lutherstadt Eisleben — Graph

°F

Lutherstadt Eisleben temperature yesterday

Maximum temperature yesterday: 48 °F (at 12:00 AM)
Minimum temperature yesterday: 38 °F (at 10:00 PM)
Average temperature yesterday: 44 °F

Past Weeks' High & Low Weather Summary

 TemperatureHumidityPressure
High62 °F (Mar 25, 3:00 PM)100% (Mar 31, 7:00 AM)30.37 "Hg (Mar 31, 7:00 AM)
Low26 °F (Mar 23, 3:00 AM)25% (Mar 19, 3:00 PM)29.15 "Hg (Mar 31, 9:00 AM)
Average44 °F70%30.00 "Hg
* Reported Mar 16 8:00 AM — Mar 31 9:00 AM, Lutherstadt Eisleben, Weather by CustomWeather, © 2015

Note: Actual official high and low records may vary slightly from our data, if they occured in-between our weather recording intervals... More about our weather records

Advertising

Lutherstadt Eisleben weather history for previous 24 hours

 ConditionsComfort  
Time TempWeatherWind HumidityBarometerVisibility
9:00 AM
Tue, Mar 31
43 °FLight rain. Overcast.10 mph96%29.15 "Hg16 mi
8:00 AM36 °FLight rain. Low clouds.9 mph98%29.21 "Hg7 mi
7:00 AM33 °FLight rain. Low clouds.10 mph100%29.29 "Hg4 mi
6:00 AM33 °FLight rain. Low clouds.8 mph98%29.41 "Hg2 mi
4:00 AM41 °FOvercast.8 mph61%29.60 "Hg31 mi
3:00 AM40 °FOvercast.8 mph63%29.66 "Hg37 mi
2:00 AM40 °FOvercast.8 mph65%29.71 "Hg37 mi
1:00 AM38 °FPassing clouds.8 mph77%29.75 "Hg37 mi
12:00 AM36 °FPassing clouds.7 mph81%29.76 "Hg37 mi
10:00 PM
Mon, Mar 30
38 °FPassing clouds.8 mph80%29.76 "Hg37 mi
9:00 PM39 °FPassing clouds.6 mph72%29.75 "Hg37 mi
8:00 PM42 °FPassing clouds.7 mph63%29.70 "Hg37 mi
7:00 PM44 °FPartly sunny.8 mph57%29.66 "Hg31 mi
6:00 PM45 °FPartly sunny.9 mph64%29.62 "Hg28 mi
4:00 PM42 °FSprinkles. Partly sunny.13 mph67%29.56 "Hg28 mi
3:00 PM47 °FOvercast.15 mph50%29.50 "Hg31 mi
2:00 PM46 °FOvercast.13 mph51%29.47 "Hg31 mi
1:00 PM44 °FOvercast.14 mph67%29.44 "Hg31 mi
12:00 PM44 °FScattered clouds.15 mph70%29.41 "Hg28 mi
10:00 AM43 °FSprinkles. Partly sunny.14 mph71%29.35 "Hg31 mi
Weather by CustomWeather, © 2015

See weather overviewHow to use our weather pages